Washington, NC

3:53 AM EDT on September 23, 2017 (GMT -0400)
Warren

Weather History for KOCW - October, 2013

Change the Weather History Date:

Tuesday, October 8, 2013

  Actual Average (KPGV) Record (KPGV)
Temperature  
Mean Temperature 66 °F -  
Max Temperature 73 °F 75 °F 94 °F (1937)
Min Temperature 59 °F 50 °F 35 °F (1935)
Cooling Degree Days 1    
Growing Degree Days 16 (Base 50)    
Moisture  
Dew Point 57 °F    
Average Humidity 84    
Maximum Humidity 85    
Minimum Humidity 79    
Precipitation  
Precipitation 0.00 in - - ()
Sea Level Pressure  
Sea Level Pressure 30.09 in    
Wind  
Wind Speed 11 mph (NNE)    
Max Wind Speed 16 mph    
Max Gust Speed 24 mph    
Visibility 10 miles    
Events      
Averages and records for this station are not official NWS values.
T = Trace of Precipitation, MM = Missing Value Source: NWS Daily Summary

Daily Weather History Graph

Daily Weather History Graph

Search for Another Location

Airport or City:

Trip Planner

Search our weather history database for the weather conditions in past years. The results will help you decide how hot, cold, wet, or windy it might be!

Date:

Astronomy

Oct. 08, 2013 Rise Set
Actual Time 7:08 AM EDT 6:41 PM EDT
Civil Twilight 6:43 AM EDT 7:07 PM EDT
Nautical Twilight 6:13 AM EDT 7:36 PM EDT
Astronomical Twilight 5:44 AM EDT 8:06 PM EDT
Moon 10:53 AM EDT (10/8) 9:24 PM EDT (10/8)
Length of Visible Light 12h 23m
Length of Day
11h 32m
Waxing Crescent, 16% of the Moon is Illuminated
Oct 8
Waxing Crescent
Oct 11
First Quarter
Oct 18
Full
Oct 26
Last Quarter
Nov 3
New

Hourly Weather History & Observations

Time (EDT) Temp. Dew Point Humidity Pressure Visibility Wind Dir Wind Speed Gust Speed Precip Events Conditions
12:15 AM 73.0 °F 68.2 °F 85% 29.96 in 10.0 mi North 9.2 mph - N/A   Overcast
12:35 AM 73.0 °F 68.2 °F 85% 29.96 in 10.0 mi North 8.1 mph - N/A   Overcast
12:55 AM 73.0 °F 68.2 °F 85% 29.96 in 10.0 mi North 8.1 mph - N/A   Overcast
1:15 AM 70.7 °F 65.7 °F 84% 29.97 in 10.0 mi North 6.9 mph - N/A   Overcast
1:35 AM 70.7 °F 65.7 °F 84% 29.97 in 10.0 mi North 10.4 mph - N/A   Overcast
1:55 AM 68.9 °F 64.0 °F 84% 29.97 in 10.0 mi NNE 11.5 mph - N/A   Mostly Cloudy
2:15 AM 68.5 °F 63.9 °F 85% 29.97 in 10.0 mi NNE 9.2 mph - N/A   Mostly Cloudy
2:35 AM 69.1 °F 64.4 °F 85% 29.98 in 10.0 mi NNE 11.5 mph - N/A   Mostly Cloudy
2:55 AM 70.0 °F 65.1 °F 85% 29.98 in 10.0 mi NNE 13.8 mph 23.0 mph N/A   Overcast
3:15 AM 65.7 °F 61.0 °F 85% 29.99 in 10.0 mi NNE 15.0 mph 23.0 mph N/A   Overcast
3:35 AM 64.8 °F 60.1 °F 85% 30.00 in 10.0 mi North 13.8 mph 19.6 mph N/A   Overcast
3:55 AM 63.0 °F 58.3 °F 85% 30.01 in 10.0 mi NNE 16.1 mph - N/A   Overcast
4:15 AM 63.0 °F 58.3 °F 85% 30.01 in 10.0 mi NNE 12.7 mph 19.6 mph N/A   Overcast
4:35 AM 63.0 °F 58.3 °F 85% 30.01 in 10.0 mi NNE 11.5 mph - N/A   Overcast
4:55 AM 63.0 °F 58.3 °F 85% 30.02 in 10.0 mi NNE 9.2 mph 18.4 mph N/A   Overcast
5:15 AM 63.0 °F 58.3 °F 85% 30.02 in 10.0 mi North 13.8 mph 17.3 mph N/A   Overcast
5:35 AM 63.0 °F 58.3 °F 85% 30.04 in 10.0 mi NNE 11.5 mph - N/A   Overcast
5:55 AM 63.0 °F 58.3 °F 85% 30.03 in 10.0 mi NNE 10.4 mph 18.4 mph N/A   Overcast
6:15 AM 63.0 °F 58.3 °F 85% 30.05 in 10.0 mi NNE 16.1 mph 21.9 mph N/A   Overcast
6:35 AM 63.0 °F 58.3 °F 85% 30.06 in 10.0 mi NNE 10.4 mph 18.4 mph N/A   Overcast
6:55 AM 63.0 °F 58.3 °F 85% 30.07 in 10.0 mi NNE 13.8 mph 19.6 mph N/A   Overcast
7:15 AM 61.9 °F 57.4 °F 85% 30.08 in 10.0 mi North 6.9 mph - N/A   Overcast
7:35 AM 63.0 °F 58.3 °F 85% 30.09 in 10.0 mi North 9.2 mph - N/A   Overcast
7:55 AM 61.0 °F 56.3 °F 85% 30.09 in 10.0 mi NNE 9.2 mph - N/A   Overcast
8:15 AM 60.4 °F 54.1 °F 80% 30.10 in 10.0 mi NNE 16.1 mph 21.9 mph N/A   Overcast
8:35 AM 60.4 °F 54.0 °F 79% 30.10 in 10.0 mi NNE 16.1 mph 21.9 mph N/A   Overcast
8:55 AM 60.4 °F 54.1 °F 80% 30.10 in 10.0 mi NNE 15.0 mph 24.2 mph N/A   Overcast
9:15 AM 60.4 °F 54.9 °F 82% 30.10 in 10.0 mi NNE 13.8 mph 23.0 mph N/A   Overcast
9:35 AM 60.4 °F 55.6 °F 84% 30.11 in 10.0 mi NNE 15.0 mph - N/A   Overcast
9:55 AM 60.4 °F 55.8 °F 85% 30.12 in 10.0 mi NNE 12.7 mph 21.9 mph N/A   Overcast
10:15 AM 60.4 °F 55.4 °F 83% 30.12 in 10.0 mi NNE 15.0 mph 20.7 mph N/A   Overcast
10:35 AM 60.4 °F 55.6 °F 84% 30.13 in 10.0 mi NNE 12.7 mph 18.4 mph N/A   Overcast
10:55 AM 60.4 °F 55.4 °F 83% 30.12 in 10.0 mi NNE 13.8 mph 18.4 mph N/A   Overcast
11:15 AM 60.4 °F 55.0 °F 82% 30.13 in 10.0 mi NNE 10.4 mph 16.1 mph N/A   Overcast
11:35 AM 60.4 °F 55.0 °F 82% 30.14 in 10.0 mi NNE 9.2 mph - N/A   Overcast
11:55 AM 60.4 °F 55.0 °F 82% 30.14 in 10.0 mi NNE 11.5 mph - N/A   Overcast
12:15 PM 60.4 °F 55.6 °F 84% 30.14 in 10.0 mi NNE 11.5 mph 18.4 mph N/A   Overcast
12:35 PM 60.4 °F 55.9 °F 85% 30.14 in 10.0 mi NNE 9.2 mph 16.1 mph N/A   Overcast
12:55 PM 60.4 °F 55.9 °F 85% 30.14 in 10.0 mi NNE 8.1 mph - N/A   Overcast
1:15 PM 60.4 °F 55.9 °F 85% 30.14 in 10.0 mi North 9.2 mph - N/A   Overcast
1:35 PM 60.4 °F 55.9 °F 85% 30.12 in 10.0 mi North 10.4 mph - N/A   Overcast
1:55 PM 60.4 °F 55.9 °F 85% 30.12 in 10.0 mi NNE 9.2 mph - N/A   Overcast
2:15 PM 60.4 °F 55.9 °F 85% 30.12 in 10.0 mi NNE 10.4 mph - N/A   Mostly Cloudy
2:35 PM 60.4 °F 55.9 °F 85% 30.12 in 10.0 mi North 9.2 mph - N/A   Overcast
2:55 PM 60.4 °F 55.9 °F 85% 30.11 in 10.0 mi North 12.7 mph 17.3 mph N/A   Overcast
3:15 PM 60.4 °F 55.9 °F 85% 30.11 in 10.0 mi North 9.2 mph 17.3 mph N/A   Overcast
3:35 PM 60.4 °F 55.9 °F 85% 30.11 in 10.0 mi NNE 10.4 mph - N/A   Overcast
3:55 PM 60.8 °F 56.3 °F 85% 30.11 in 10.0 mi North 9.2 mph - N/A   Overcast
4:15 PM 60.8 °F 56.3 °F 85% 30.12 in 10.0 mi North 10.4 mph - N/A   Overcast
4:35 PM 60.4 °F 55.9 °F 85% 30.12 in 10.0 mi North 8.1 mph - N/A   Mostly Cloudy
4:55 PM 60.4 °F 55.9 °F 85% 30.12 in 10.0 mi North 8.1 mph - N/A   Overcast
5:15 PM 60.4 °F 55.9 °F 85% 30.12 in 10.0 mi North 9.2 mph - N/A   Scattered Clouds
5:35 PM 60.4 °F 55.9 °F 85% 30.11 in 10.0 mi North 9.2 mph - N/A   Mostly Cloudy
5:55 PM 60.4 °F 55.9 °F 85% 30.11 in 10.0 mi North 9.2 mph - N/A   Overcast
6:15 PM 60.4 °F 55.9 °F 85% 30.12 in 10.0 mi North 6.9 mph - N/A   Overcast
6:35 PM 60.4 °F 55.9 °F 85% 30.13 in 10.0 mi North 6.9 mph - N/A   Overcast
6:55 PM 60.4 °F 55.9 °F 85% 30.13 in 10.0 mi North 6.9 mph - N/A   Mostly Cloudy
7:15 PM 60.4 °F 55.9 °F 85% 30.13 in 10.0 mi North 9.2 mph - N/A   Overcast
7:35 PM 59.4 °F 54.9 °F 85% 30.12 in 10.0 mi North 9.2 mph - N/A   Overcast
7:55 PM 59.2 °F 54.7 °F 85% 30.12 in 10.0 mi North 9.2 mph - N/A   Mostly Cloudy
8:15 PM 59.2 °F 54.7 °F 85% 30.12 in 7.0 mi North 13.8 mph - N/A   Overcast
8:35 PM 59.2 °F 54.7 °F 85% 30.12 in 10.0 mi North 10.4 mph - N/A   Overcast
8:55 PM 59.2 °F 54.7 °F 85% 30.13 in 10.0 mi North 10.4 mph - N/A   Mostly Cloudy
9:15 PM 59.2 °F 54.7 °F 85% 30.13 in 10.0 mi North 11.5 mph - N/A   Overcast
9:35 PM 59.2 °F 54.7 °F 85% 30.13 in 10.0 mi North 9.2 mph 17.3 mph N/A   Mostly Cloudy
9:55 PM 59.2 °F 54.7 °F 85% 30.13 in 10.0 mi North 11.5 mph - N/A   Overcast
10:15 PM 59.2 °F 54.7 °F 85% 30.14 in 10.0 mi North 10.4 mph - N/A   Overcast
10:35 PM 59.4 °F 54.9 °F 85% 30.14 in 10.0 mi North 10.4 mph 17.3 mph N/A   Mostly Cloudy
10:55 PM 60.4 °F 55.9 °F 85% 30.14 in 10.0 mi North 9.2 mph 16.1 mph N/A   Scattered Clouds
11:15 PM 60.4 °F 55.9 °F 85% 30.14 in 10.0 mi North 10.4 mph - N/A   Scattered Clouds
11:35 PM 60.4 °F 55.9 °F 85% 30.14 in 10.0 mi North 8.1 mph - N/A   Mostly Cloudy
11:55 PM 60.4 °F 55.9 °F 85% 30.13 in 7.0 mi North 10.4 mph - N/A   Mostly Cloudy